DELTA 1 DEB, 18906

Orbit data source: Space-Track

DELTA 1 DEB, 18906 is space debris in SSO originally from a launch on Tue, 06 Nov 1973 UTC launched from the Air Force Western Test Range (AFWTR). Debris objects in space refer to the collection of defunct objects orbiting the Earth. Examples of debris include non-operational satellites, rocket bodies, and fragments generated from explosions, collisions, or faulty payload assembly.

Loading next visibility...
Identifier
18906, 1973-086HB
Orbit
SSO
Country
Flag of USUS
Related business
Manufacturer
Unknown
Mission
Spacecraft
Bus & Motor
Unknown
Mass
Unknown
Launch date (UTC)
1973-11-06 (52 years ago)
Launch vehicle
Unknown
Launch site
Air Force Western Test Range (AFWTR)
Object type
Payload
Rocket body
Debris
Shape & HBR
Unknown shape, 0.1 m
Radar Cross Section
Small (<0.1 m²)

Expand to show TLE details & history
Last TLE update: 1 day ago

TLE from 1 day ago
0 DELTA 1 DEB
1 18906U 73086HB  25292.10206874 -.00000038  00000-0  65883-4 0  9992
2 18906 102.2898 156.2795 0088752 197.6520 318.1117 12.55917571741794
Epoch: 2025-10-19T02:26Z
TLE epoch observation values (Epoch: 2025-10-19T02:26:58.739Z)
Latitude
24.33883°
Longitude
-82.66181°
Altitude
1,391.083 km
Speed
7.19 km/s
True Right ascension
22h 47m 37s
True Declination
24° 13' 14"
Sunlit
Object was in full shadow at epoch
Visualization orbit readout
Latitude
Unknown
Longitude
Unknown
Altitude
Unknown
Speed
Unknown
Apparent Right ascension
Unknown
Apparent Declination
Unknown
Sunlit
N/A
Visualization observer readout
Local Sidereal Time
21:38:58
Azimuth
Unknown
Elevation
Unknown
Doppler factor
Unknown
Orbital elements
Apogee altitude
1,506.776 km
Perigee altitude
1,368.047 km
Semi-major axis
7,815.549 km
Eccentricity
0.00888
Inclination
102.2898°
RAAN
156.2795°
Arg. of periapsis
197.652°
True anomaly
317.42702°
Mean anomaly
318.1117°
Eccentric anomaly
317.76992°
Mean motion
3.14126 °/min
Orbital period
114.6 mins
BSTAR
0.000065883
Loading maneuver chart data...
Computing Atmospheric mass density...
Loading historical data...
Loading historical data...
Loading historical data...
Loading historical data...
Loading historical data...
Loading historical data...
Loading historical data...

Documentation

Showing up to 5 results
|